Location: St. Louis
(38.6270°N, 90.1994°W)
Time: 10:51:56
(UTC-06:00)

A-11 Canister half - Pass Details

Date: 08 December 2021
Orbit: 1524 x 1684 km, 47.3° (Epoch: 25 January)

Event Time Altitude Azimuth Distance (km) Brightness Sun altitude
Rises 21:06:03 0° 178° (S) 4,865 - -51.2°
Reaches altitude 10° 21:10:39 10° 160° (SSE) 3,905 - -52.1°
Maximum altitude 21:16:32 17° 123° (ESE) 3,372 - -53.2°
Drops below altitude 10° 21:22:26 10° 86° (E) 3,947 - -54.3°
Sets 21:27:03 0° 69° (ENE) 4,939 - -55.2°
